Date String (YYYY-MM-DD hh:mm:ss) UTC,Instrument flags,Ambient pressure (hPa),Sample flow (lpm),Bypass flow (lpm),Sample temperature (°C),Ambient temperature (°C),ASC tube jacket temperature (°C),LED temperature (°C),Box temperature (°C),Sample RH (%),Span deviation,Mass concentration (μg/m³),Mass concentration (μg/m³),Mass concentration (μg/m³)
DateTimeUTC,F1_M11,P_M11,Q1_M11,Q2_M11,T1_M11,T2_M11,T3_M11,T4_M11,T5_M11,U1_M11,ZSPAN_M11,X2_M11,X0_M11,X1_M11
2023-02-11 12:00:00,,0827.2,5.02,0.00,22.3,20.3,00.0,31.3,24.0,09.0,0000.0,0006.01,0015.14,0005.00
2023-02-11 12:01:00,,0827.3,5.01,0.00,22.2,20.3,00.0,31.2,24.0,09.0,0000.0,0005.95,0015.71,0004.96
2023-02-11 12:02:00,,0826.8,4.96,0.00,22.2,20.4,00.0,31.2,24.0,09.0,0000.0,0005.90,0015.21,0004.89
2023-02-11 12:03:00,,0826.8,5.00,0.00,22.2,20.5,00.0,31.2,23.9,09.0,0000.0,0005.82,0015.99,0004.80
2023-02-11 12:04:00,,0826.8,4.98,0.00,22.3,21.5,00.0,31.1,24.2,09.0,0000.0,0005.66,0016.71,0004.71
2023-02-11 12:05:00,,0826.8,5.01,0.00,22.4,22.6,00.0,31.1,24.4,09.0,0000.0,0005.57,0016.93,0004.64
2023-02-11 12:06:00,,0826.8,5.01,0.00,22.5,22.8,00.0,31.2,24.6,08.9,0000.0,0005.53,0017.01,0004.56
2023-02-11 12:07:00,,0826.8,5.04,0.00,22.5,22.4,00.0,31.2,24.5,08.9,0000.0,0005.42,0016.97,0004.48
2023-02-11 12:08:00,,0826.9,5.03,0.00,22.5,21.9,00.0,31.3,24.4,08.9,0000.0,0005.31,0017.54,0004.40
2023-02-11 12:09:00,,0826.9,4.94,0.00,22.5,21.5,00.0,31.3,24.3,08.9,0000.0,0005.31,0017.40,0004.37
2023-02-11 12:10:00,,0826.8,5.01,0.00,22.5,21.0,00.0,31.3,24.1,08.9,0000.0,0005.27,0017.54,0004.34
2023-02-11 12:11:00,,0826.8,5.00,0.00,22.4,20.6,00.0,31.3,23.9,09.0,0000.0,0005.25,0018.11,0004.32
2023-02-11 12:12:00,,0826.8,4.99,0.00,22.3,20.3,00.0,31.2,23.8,09.0,0000.0,0005.24,0017.15,0004.28
2023-02-11 12:13:00,,0826.8,5.00,0.00,22.2,20.1,00.0,31.2,23.7,09.0,0000.0,0005.22,0017.63,0004.24
2023-02-11 12:14:00,,0827.0,4.99,0.00,22.1,20.0,00.0,31.2,23.6,09.0,0000.0,0005.23,0017.54,0004.21
2023-02-11 12:15:00,,0826.8,4.99,0.00,22.1,19.9,00.0,31.2,23.7,09.1,0000.0,0005.25,0016.62,0004.21
2023-02-11 12:16:00,,0826.8,4.99,0.00,22.1,20.0,00.0,31.1,23.6,09.1,0000.0,0005.26,0016.53,0004.20
2023-02-11 12:17:00,,0826.7,5.03,0.00,22.1,20.9,00.0,31.1,23.9,09.1,0000.0,0005.22,0017.06,0004.18
2023-02-11 12:18:00,,0826.8,4.97,0.00,22.2,22.1,00.0,31.1,24.1,09.0,0000.0,0005.22,0017.22,0004.16
2023-02-11 12:19:00,,0826.8,5.01,0.00,22.3,22.8,00.0,31.1,24.3,08.9,0000.0,0005.17,0017.16,0004.14
2023-02-11 12:20:00,,0826.8,4.99,0.00,22.4,22.4,00.0,31.1,24.3,08.9,0000.0,0005.14,0017.44,0004.11
2023-02-11 12:21:00,,0826.8,4.99,0.00,22.4,21.9,00.0,31.2,24.2,08.9,0000.0,0005.09,0016.83,0004.06
2023-02-11 12:22:00,,0826.8,4.92,0.00,22.4,21.5,00.0,31.2,24.2,08.9,0000.0,0005.04,0016.69,0004.02
2023-02-11 12:23:00,,0826.8,4.98,0.00,22.4,21.3,00.0,31.2,24.1,08.9,0000.0,0005.01,0017.29,0004.00
2023-02-11 12:24:00,,0826.7,5.04,0.00,22.3,21.0,00.0,31.2,24.1,08.9,0000.0,0005.00,0016.89,0004.00
2023-02-11 12:25:00,,0826.7,5.03,0.00,22.3,20.8,00.0,31.2,24.0,08.9,0000.0,0004.93,0015.73,0004.01
2023-02-11 12:26:00,,0826.7,5.00,0.00,22.3,20.7,00.0,31.2,23.9,08.9,0000.0,0004.90,0015.48,0004.00
2023-02-11 12:27:00,,0826.7,4.99,0.00,22.3,20.5,00.0,31.2,23.9,09.0,0000.0,0004.90,0015.29,0004.00
2023-02-11 12:28:00,,0826.8,4.98,0.00,22.2,20.4,00.0,31.2,23.9,09.0,0000.0,0004.89,0014.95,0003.99
2023-02-11 12:29:00,,0826.7,5.03,0.00,22.2,20.4,00.0,31.2,23.8,09.0,0000.0,0004.91,0015.47,0003.99
2023-02-11 12:30:00,,0826.7,5.00,0.00,22.2,20.3,00.0,31.1,23.8,09.1,0000.0,0004.96,0015.15,0003.99
2023-02-11 12:31:00,,0826.7,5.00,0.00,22.1,20.3,00.0,31.1,23.8,09.1,0000.0,0005.00,0015.07,0004.03
2023-02-11 12:32:00,,0826.7,5.01,0.00,22.1,20.3,00.0,31.1,23.8,09.1,0000.0,0005.06,0016.53,0004.08
2023-02-11 12:33:00,,0826.7,5.00,0.00,22.1,20.3,00.0,31.1,23.8,09.1,0000.0,0005.07,0016.09,0004.12
2023-02-11 12:34:00,,0826.8,4.97,0.00,22.1,21.0,00.0,31.0,24.0,09.1,0000.0,0005.05,0015.53,0004.14
2023-02-11 12:35:00,,0826.8,4.97,0.00,22.2,22.1,00.0,31.0,24.2,09.0,0000.0,0005.05,0015.22,0004.15
2023-02-11 12:36:00,,0826.8,5.00,0.00,22.4,22.8,00.0,31.1,24.4,09.0,0000.0,0005.05,0015.43,0004.17
2023-02-11 12:37:00,,0826.7,5.01,0.00,22.4,22.4,00.0,31.1,24.3,08.9,0000.0,0005.11,0015.97,0004.18
2023-02-11 12:38:00,,0826.7,5.03,0.00,22.4,21.8,00.0,31.1,24.2,08.9,0000.0,0005.13,0016.63,0004.17
2023-02-11 12:39:00,,0826.8,4.96,0.00,22.4,21.4,00.0,31.2,24.1,08.9,0000.0,0005.15,0016.68,0004.16
2023-02-11 12:40:00,,0826.9,4.97,0.00,22.3,21.1,00.0,31.2,24.0,08.9,0000.0,0005.13,0015.76,0004.15
2023-02-11 12:41:00,,0826.9,4.98,0.00,22.3,20.7,00.0,31.2,23.9,09.0,0000.0,0005.14,0016.43,0004.15
2023-02-11 12:42:00,,0826.8,5.01,0.00,22.2,20.4,00.0,31.1,23.8,09.0,0000.0,0005.12,0016.14,0004.13
2023-02-11 12:43:00,,0826.8,5.00,0.00,22.2,20.3,00.0,31.1,23.7,09.0,0000.0,0005.04,0014.63,0004.09
2023-02-11 12:44:00,,0826.7,4.98,0.00,22.1,20.2,00.0,31.1,23.8,09.0,0000.0,0005.03,0014.40,0004.05
2023-02-11 12:45:00,,0826.8,4.98,0.00,22.1,20.2,00.0,31.1,23.7,09.0,0000.0,0005.11,0014.38,0004.03
2023-02-11 12:46:00,,0826.8,5.01,0.00,22.1,20.1,00.0,31.1,23.7,09.0,0000.0,0005.15,0014.72,0004.01
2023-02-11 12:47:00,,0826.8,4.98,0.00,22.0,20.2,00.0,31.1,23.7,09.0,0000.0,0005.18,0014.97,0003.99
2023-02-11 12:48:00,,0826.8,5.04,0.00,22.1,21.3,00.0,31.0,24.0,09.0,0000.0,0005.16,0015.18,0003.97
2023-02-11 12:49:00,,0827.1,5.01,0.00,22.2,22.4,00.0,31.0,24.2,08.9,0000.0,0005.12,0014.66,0003.96
2023-02-11 12:50:00,,0827.0,4.96,0.00,22.3,22.3,00.0,31.1,24.2,08.9,0000.0,0005.13,0014.84,0003.96
2023-02-11 12:51:00,,0826.8,5.06,0.00,22.3,21.7,00.0,31.1,24.1,08.9,0000.0,0005.17,0015.04,0003.97
2023-02-11 12:52:00,,0826.8,4.96,0.00,22.2,21.3,00.0,31.1,24.0,08.9,0000.0,0005.23,0014.41,0003.98
2023-02-11 12:53:00,,0826.9,4.97,0.00,22.2,20.9,00.0,31.1,23.8,08.9,0000.0,0005.23,0014.88,0003.97
2023-02-11 12:54:00,,0826.8,4.97,0.00,22.1,20.6,00.0,31.1,23.7,09.0,0000.0,0005.26,0015.10,0003.96
2023-02-11 12:55:00,,0826.7,5.01,0.00,22.1,20.3,00.0,31.1,23.6,09.0,0000.0,0005.28,0015.11,0003.95
2023-02-11 12:56:00,,0826.8,5.00,0.00,22.0,20.1,00.0,31.1,23.5,09.0,0000.0,0005.20,0014.68,0003.93
2023-02-11 12:57:00,,0826.7,5.01,0.00,21.9,19.9,00.0,31.0,23.4,09.0,0000.0,0005.12,0014.03,0003.92
2023-02-11 12:58:00,,0826.7,4.99,0.00,21.9,19.7,00.0,31.0,23.3,09.1,0000.0,0005.11,0013.86,0003.90
2023-02-11 12:59:00,,0826.7,5.03,0.00,21.9,20.5,00.0,30.9,23.5,09.0,0000.0,0004.99,0013.08,0003.84
